Torna al catalogo

DB-CHARMS-ND

AttivoRadioamatoreSSO
NORAD 68455·PAYLOAD·🇺🇸 United States

Lanciato Mar 30, 2026 da Vandenberg Space Force Base

Loading…

Prossimi Passaggi (prossime 24 ore)

TLE

AggiornatoSource: Space-Track

Epoca: Sep 14, 2026, 07:54 UTC

1 68455U 26067AR  26257.32931688  .00003316  00000-0  16614-3 0  9995
2 68455  97.4682 214.4382 0007361 107.6739 252.5299 15.18042954 25459

Traccia DB-CHARMS-ND in tempo reale con AllMySat

Download on the App Store